EW7269 Weather Reports


time (UTC)temp
C
wind
direction
speed
KPH
gust
KPH
rain 1hr
cm
rain 24hr
cm
rain mn
cm
humidity
%
barometer
mb
20260504174543 24 230 3.2 11.3 0.00 0.00 0.00 35 1012.9
20260504174047 24 248 4.8 16.1 0.00 0.00 0.00 36 1013.0
20260504173544 24 234 3.2 9.7 0.00 0.00 0.00 36 1013.2
20260504173121 23 264 4.8 12.9 0.00 0.00 0.00 36 1013.0
20260504172543 23 244 3.2 12.9 0.00 0.00 0.00 35 1013.1
20260504172047 23 223 6.4 14.5 0.00 0.00 0.00 35 1013.2
20260504171543 23 193 1.6 9.7 0.00 0.00 0.00 36 1013.1
20260504171041 23 248 3.2 9.7 0.00 0.00 0.00 37 1013.4
20260504170543 23 250 4.8 14.5 0.00 0.00 0.00 36 1013.3
20260504151041 21 231 1.6 3.2 0.00 0.00 0.00 39 1014.6
20260504150603 21 215 1.6 8.0 0.00 0.00 0.00 39 1014.9
20260504141041 18 214 0.0 1.6 0.00 0.00 0.00 46 1015.0
20260504140543 18 230 3.2 8.0 0.00 0.00 0.00 46 1015.1
20260504130544 15 226 0.0 3.2 0.00 0.00 0.00 56 1015.5
20260504130107 15 223 1.6 1.6 0.00 0.00 0.00 55 1015.6
20260504110543 9 227 0.0 1.6 0.00 0.00 0.00 66 1016.0
20260504100543 10 261 1.6 4.8 0.00 0.00 0.00 61 1015.5
20260504081543 9 0.0 0.0 0.00 0.00 0.00 70 1016.2
20260504081122 10 0.0 0.0 0.00 0.00 0.00 69 1016.1
20260504080543 10 0.0 0.0 0.00 0.00 0.00 66 1016.0
20260504050543 11 257 0.0 3.2 0.00 0.00 0.00 54 1016.2
20260504045545 11 192 0.0 1.6 0.00 0.00 0.00 57 1016.0
20260504045041 11 222 1.6 4.8 0.00 0.00 0.00 57 1016.0
20260504044624 11 139 1.6 3.2 0.00 0.00 0.00 57 1015.9
20260504044047 11 200 1.6 8.0 0.00 0.00 0.00 55 1016.0
20260504043543 11 231 1.6 3.2 0.00 0.00 0.00 57 1016.2
20260504043041 10 201 1.6 3.2 0.00 0.00 0.00 60 1016.2
20260504042543 10 248 1.6 3.2 0.00 0.00 0.00 60 1016.2
20260504042047 10 230 1.6 4.8 0.00 0.00 0.00 62 1015.9
20260504041543 9 180 1.6 4.8 0.00 0.00 0.00 67 1016.1
20260504041041 8 189 1.6 3.2 0.00 0.00 0.00 68 1015.7
20260504040543 8 200 0.0 1.6 0.00 0.00 0.00 71 1016.1
20260504040040 8 176 0.0 1.6 0.00 0.00 0.00 72 1016.2
20260504035543 8 174 1.6 1.6 0.00 0.00 0.00 72 1016.1
20260504035040 8 181 0.0 1.6 0.00 0.00 0.00 72 1016.2
20260504034548 8 186 0.0 1.6 0.00 0.00 0.00 71 1016.0
20260504034039 8 163 0.0 1.6 0.00 0.00 0.00 71 1016.2
20260504033603 8 206 0.0 1.6 0.00 0.00 0.00 71 1016.2
20260504033040 8 199 0.0 1.6 0.00 0.00 0.00 71 1016.2
20260504032613 8 176 0.0 1.6 0.00 0.00 0.00 71 1015.9
20260504032059 8 180 0.0 1.6 0.00 0.00 0.00 71 1016.1
20260504031543 8 177 0.0 1.6 0.00 0.00 0.00 71 1016.1
20260504031040 8 175 0.0 1.6 0.00 0.00 0.00 68 1016.0
20260504030548 8 0.0 0.0 0.00 0.00 0.00 68 1016.1
20260504030039 8 191 1.6 3.2 0.00 0.00 0.00 67 1016.1
20260504025543 8 201 0.0 1.6 0.00 0.00 0.00 68 1016.2
20260504025100 9 0.0 0.0 0.00 0.00 0.00 67 1016.2
20260504024549 9 217 1.6 3.2 0.00 0.00 0.00 67 1016.1
20260504024039 8 164 1.6 3.2 0.00 0.00 0.00 67 1016.2
20260504023604 8 197 0.0 1.6 0.00 0.00 0.00 69 1016.2
20260504023040 9 0.0 0.0 0.00 0.00 0.00 68 1016.0
20260504022548 8 0.0 0.0 0.00 0.00 0.00 67 1016.0
20260504022039 8 0.0 0.0 0.00 0.00 0.00 68 1015.9
20260504021543 9 0.0 0.0 0.00 0.00 0.00 67 1016.0
20260504021100 9 0.0 0.0 0.00 0.00 0.00 66 1016.0
20260504020548 9 0.0 0.0 0.00 0.00 0.00 66 1016.0
20260504020039 9 192 0.0 3.2 0.00 0.00 0.00 65 1015.8
20260504015543 9 114 1.6 3.2 0.00 0.00 0.00 65 1015.9
20260504015040 9 179 0.0 1.6 0.00 0.00 0.00 66 1015.8
20260504014608 8 178 0.0 1.6 0.00 0.00 0.00 67 1015.9
20260504014040 8 153 0.0 1.6 0.00 0.00 0.00 69 1015.8
20260504013543 8 0.0 0.0 0.00 0.00 0.00 68 1015.8
20260504013045 8 0.0 0.0 0.00 0.00 0.00 68 1015.7
20260504012608 8 0.0 0.0 0.00 0.00 0.00 68 1015.6
20260504012039 8 0.0 0.0 0.00 0.00 0.00 68 1015.5
20260504011543 9 0.0 0.0 0.00 0.00 0.00 67 1015.5
20260504011040 9 0.0 0.0 0.00 0.00 0.00 67 1015.5
20260504010548 9 0.0 0.0 0.00 0.00 0.00 67 1015.5
20260504010039 10 0.0 0.0 0.00 0.00 0.00 65 1015.4
20260504005544 10 0.0 0.0 0.00 0.00 0.00 64 1015.4
20260504005040 10 0.0 0.0 0.00 0.00 0.00 64 1015.3
20260504004548 10 0.0 0.0 0.00 0.00 0.00 64 1015.3
20260504004120 10 0.0 0.0 0.00 0.00 0.00 63 1015.3
20260504003543 10 0.0 0.0 0.00 0.00 0.00 62 1015.2
20260504003040 10 0.0 0.0 0.00 0.00 0.00 59 1015.2
20260504002549 11 0.0 0.0 0.00 0.00 0.00 59 1015.2
20260504002039 11 0.0 0.0 0.00 0.00 0.00 58 1015.2
20260504001543 11 0.0 0.0 0.00 0.00 0.00 57 1015.3
20260504001040 12 0.0 0.0 0.00 0.00 0.00 58 1015.2
20260504000548 12 0.0 0.0 0.00 0.00 0.00 52 1015.1
20260504000039 12 0.0 0.0 0.00 0.00 0.00 51 1015.1
20260503235624 12 0.0 0.0 0.00 0.00 0.00 51 1015.1
20260503235040 13 0.0 0.0 0.00 0.00 0.00 50 1014.9
20260503234548 13 0.0 0.0 0.00 0.00 0.00 49 1015.0
20260503234039 13 0.0 0.0 0.00 0.00 0.00 48 1015.0
20260503233543 14 0.0 0.0 0.00 0.00 0.00 45 1015.0
20260503233042 15 0.0 0.0 0.00 0.00 0.00 43 1015.0
20260503232548 15 0.0 0.0 0.00 0.00 0.00 41 1014.9
20260503232040 16 211 0.0 1.6 0.00 0.00 0.00 37 1014.7
20260503231609 16 229 0.0 1.6 0.00 0.00 0.00 36 1014.6
20260503231040 16 228 0.0 1.6 0.00 0.00 0.00 35 1014.8
20260503230548 16 276 0.0 1.6 0.00 0.00 0.00 34 1014.7
20260503230039 16 0.0 0.0 0.00 0.00 0.00 36 1014.7
20260503225544 16 0.0 0.0 0.00 0.00 0.00 35 1014.6
20260503225040 17 235 0.0 1.6 0.00 0.00 0.00 34 1014.7
20260503224548 17 0.0 0.0 0.00 0.00 0.00 33 1014.9
20260503224039 17 234 0.0 1.6 0.00 0.00 0.00 32 1015.0
20260503223544 17 0.0 0.0 0.00 0.00 0.00 33 1014.8
20260503223040 17 220 0.0 1.6 0.00 0.00 0.00 32 1014.9
20260503222608 17 228 0.0 1.6 0.00 0.00 0.00 32 1014.9
20260503222141 17 296 1.6 3.2 0.00 0.00 0.00 33 1014.9
20260503221544 17 231 1.6 3.2 0.00 0.00 0.00 33 1014.8
20260503221120 17 241 1.6 3.2 0.00 0.00 0.00 32 1014.9
20260503220548 17 283 0.0 3.2 0.00 0.00 0.00 32 1015.0
20260503220040 17 236 1.6 3.2 0.00 0.00 0.00 32 1015.0
20260503215604 17 265 1.6 3.2 0.00 0.00 0.00 32 1014.9
20260503214548 17 310 1.6 4.8 0.00 0.00 0.00 32 1014.9
20260503214045 17 244 1.6 3.2 0.00 0.00 0.00 32 1014.9
20260503213604 17 228 1.6 9.7 0.00 0.00 0.00 33 1014.9
20260503213120 17 244 1.6 3.2 0.00 0.00 0.00 31 1014.9
20260503212548 17 263 1.6 4.8 0.00 0.00 0.00 33 1015.1
20260503212040 17 318 1.6 4.8 0.00 0.00 0.00 32 1015.1
20260503211544 17 260 1.6 8.0 0.00 0.00 0.00 32 1015.1
20260503211040 17 271 1.6 3.2 0.00 0.00 0.00 33 1014.9
20260503210548 17 207 1.6 4.8 0.00 0.00 0.00 33 1015.1
20260503210040 17 256 1.6 4.8 0.00 0.00 0.00 32 1015.1
20260503205544 17 249 1.6 4.8 0.00 0.00 0.00 33 1015.0
20260503205040 17 253 1.6 4.8 0.00 0.00 0.00 33 1015.2
20260503204548 17 234 1.6 4.8 0.00 0.00 0.00 34 1015.3
20260503204040 17 205 1.6 4.8 0.00 0.00 0.00 33 1015.3
20260503203544 17 218 1.6 3.2 0.00 0.00 0.00 34 1015.4
20260503203045 17 254 0.0 1.6 0.00 0.00 0.00 33 1015.5
20260503202548 17 309 1.6 9.7 0.00 0.00 0.00 33 1015.4
20260503202040 17 326 0.0 3.2 0.00 0.00 0.00 35 1015.5
20260503201544 17 319 1.6 8.0 0.00 0.00 0.00 33 1015.6
20260503201040 17 281 1.6 4.8 0.00 0.00 0.00 33 1015.5
20260503200540 18 229 0.0 1.6 0.00 0.00 0.00 32 1015.6
20260503200040 17 316 1.6 3.2 0.00 0.00 0.00 33 1015.9
20260503195545 17 232 1.6 3.2 0.00 0.00 0.00 33 1015.7
20260503195100 17 292 1.6 3.2 0.00 0.00 0.00 34 1016.0
20260503194600 17 233 1.6 4.8 0.00 0.00 0.00 32 1016.0
20260503194040 17 315 1.6 4.8 0.00 0.00 0.00 33 1016.0
20260503193544 17 241 3.2 9.7 0.00 0.00 0.00 34 1016.2
20260503193040 17 201 3.2 9.7 0.00 0.00 0.00 34 1016.2
20260503192540 17 242 1.6 4.8 0.00 0.00 0.00 34 1016.4
20260503192100 17 312 3.2 8.0 0.00 0.00 0.00 33 1016.4
20260503191604 17 349 3.2 8.0 0.00 0.00 0.00 33 1016.4
20260503191040 17 310 1.6 4.8 0.00 0.00 0.00 34 1016.6
20260503190540 16 269 3.2 8.0 0.00 0.00 0.00 34 1016.5
20260503190040 17 228 3.2 8.0 0.00 0.00 0.00 33 1016.5
20260503185604 17 240 1.6 3.2 0.00 0.00 0.00 34 1016.7
20260503185040 17 342 1.6 3.2 0.00 0.00 0.00 34 1016.9
20260503184540 16 218 1.6 4.8 0.00 0.00 0.00 35 1016.9
20260503184040 17 338 3.2 8.0 0.00 0.00 0.00 33 1016.8
20260503183544 17 244 0.0 1.6 0.00 0.00 0.00 35 1017.0
20260503183040 16 300 1.6 8.0 0.00 0.00 0.00 36 1016.9
20260503182540 16 188 3.2 8.0 0.00 0.00 0.00 35 1017.0
20260503182040 16 104 1.6 3.2 0.00 0.00 0.00 34 1017.0
20260503181544 16 314 3.2 4.8 0.00 0.00 0.00 36 1017.1
20260503181100 16 256 3.2 8.0 0.00 0.00 0.00 37 1017.1
20260503180540 16 256 1.6 3.2 0.00 0.00 0.00 36 1017.2
20260503180040 16 234 1.6 4.8 0.00 0.00 0.00 36 1017.2
20260503175543 16 239 3.2 4.8 0.00 0.00 0.00 36 1017.2
20260503175102 16 241 1.6 3.2 0.00 0.00 0.00 35 1017.3